Year,Month,Day,Hour,Minute,Value (Times are PST for temperature in C)
2015,06,30,00,00,19.80
2015,06,30,00,01,19.70
2015,06,30,00,02,19.70
2015,06,30,00,03,19.70
2015,06,30,00,04,19.60
2015,06,30,00,05,19.60
2015,06,30,00,06,19.60
2015,06,30,00,07,19.50
2015,06,30,00,08,19.50
2015,06,30,00,09,19.50
2015,06,30,00,10,19.50
2015,06,30,00,11,19.40
2015,06,30,00,12,19.40
2015,06,30,00,13,19.40
2015,06,30,00,14,19.40
2015,06,30,00,15,19.40
2015,06,30,00,16,19.40
2015,06,30,00,17,19.40
2015,06,30,00,18,19.40
2015,06,30,00,19,19.40
2015,06,30,00,20,19.30
2015,06,30,00,21,19.30
2015,06,30,00,22,19.30
2015,06,30,00,23,19.30
2015,06,30,00,24,19.20
2015,06,30,00,25,19.20
2015,06,30,00,26,19.20
2015,06,30,00,27,19.20
2015,06,30,00,28,19.10
2015,06,30,00,29,19.10
2015,06,30,00,30,19.10
2015,06,30,00,31,19.00
2015,06,30,00,32,19.00
2015,06,30,00,33,19.00
2015,06,30,00,34,18.90
2015,06,30,00,35,18.90
2015,06,30,00,36,18.90
2015,06,30,00,37,18.80
2015,06,30,00,38,18.80
2015,06,30,00,39,18.80
2015,06,30,00,40,18.80
2015,06,30,00,41,18.80
2015,06,30,00,42,18.80
2015,06,30,00,43,18.80
2015,06,30,00,44,18.80
2015,06,30,00,45,18.80
2015,06,30,00,46,18.70
2015,06,30,00,47,18.70
2015,06,30,00,48,18.70
2015,06,30,00,49,18.70
2015,06,30,00,50,18.70
2015,06,30,00,51,18.70
2015,06,30,00,52,18.70
2015,06,30,00,53,18.70
2015,06,30,00,54,18.70
2015,06,30,00,55,18.70
2015,06,30,00,56,18.60
2015,06,30,00,57,18.60
2015,06,30,00,58,18.60
2015,06,30,00,59,18.60
2015,06,30,01,00,18.60
2015,06,30,01,01,18.60
2015,06,30,01,02,18.50
2015,06,30,01,03,18.50
2015,06,30,01,04,18.50
2015,06,30,01,05,18.40
2015,06,30,01,06,18.40
2015,06,30,01,07,18.40
2015,06,30,01,08,18.40
2015,06,30,01,09,18.40
2015,06,30,01,10,18.30
2015,06,30,01,11,18.30
2015,06,30,01,12,18.30
2015,06,30,01,13,18.30
2015,06,30,01,14,18.30
2015,06,30,01,15,18.30
2015,06,30,01,16,18.20
2015,06,30,01,17,18.20
2015,06,30,01,18,18.20
2015,06,30,01,19,18.20
2015,06,30,01,20,18.20
2015,06,30,01,21,18.10
2015,06,30,01,22,18.10
2015,06,30,01,23,18.10
2015,06,30,01,24,18.10
2015,06,30,01,25,18.10
2015,06,30,01,26,18.00
2015,06,30,01,27,18.00
2015,06,30,01,28,18.00
2015,06,30,01,29,18.00
2015,06,30,01,30,17.90
2015,06,30,01,31,17.90
2015,06,30,01,32,17.90
2015,06,30,01,33,17.90
2015,06,30,01,34,17.90
2015,06,30,01,35,17.90
2015,06,30,01,36,17.80
2015,06,30,01,37,17.80
2015,06,30,01,38,17.80
2015,06,30,01,39,17.80
2015,06,30,01,40,17.80
2015,06,30,01,41,17.80
2015,06,30,01,42,17.80
2015,06,30,01,43,17.80
2015,06,30,01,44,17.70
2015,06,30,01,45,17.70
2015,06,30,01,46,17.70
2015,06,30,01,47,17.70
2015,06,30,01,48,17.70
2015,06,30,01,49,17.70
2015,06,30,01,50,17.70
2015,06,30,01,51,17.60
2015,06,30,01,52,17.60
2015,06,30,01,53,17.60
2015,06,30,01,54,17.60
2015,06,30,01,55,17.60
2015,06,30,01,56,17.60
2015,06,30,01,57,17.50
2015,06,30,01,58,17.50
2015,06,30,01,59,17.50
2015,06,30,02,00,17.50
2015,06,30,02,01,17.50
2015,06,30,02,02,17.50
2015,06,30,02,03,17.50
2015,06,30,02,04,17.40
2015,06,30,02,05,17.40
2015,06,30,02,06,17.40
2015,06,30,02,07,17.40
2015,06,30,02,08,17.40
2015,06,30,02,09,17.40
2015,06,30,02,10,17.40
2015,06,30,02,11,17.40
2015,06,30,02,12,17.40
2015,06,30,02,13,17.30
2015,06,30,02,14,17.30
2015,06,30,02,15,17.30
2015,06,30,02,16,17.30
2015,06,30,02,17,17.30
2015,06,30,02,18,17.30
2015,06,30,02,19,17.20
2015,06,30,02,20,17.20
2015,06,30,02,21,17.20
2015,06,30,02,22,17.20
2015,06,30,02,23,17.20
2015,06,30,02,24,17.10
2015,06,30,02,25,17.10
2015,06,30,02,26,17.10
2015,06,30,02,27,17.10
2015,06,30,02,28,17.10
2015,06,30,02,29,17.10
2015,06,30,02,30,17.10
2015,06,30,02,31,17.00
2015,06,30,02,32,17.00
2015,06,30,02,33,17.00
2015,06,30,02,34,16.90
2015,06,30,02,35,16.90
2015,06,30,02,36,16.90
2015,06,30,02,37,16.90
2015,06,30,02,38,16.90
2015,06,30,02,39,16.90
2015,06,30,02,40,16.90
2015,06,30,02,41,16.90
2015,06,30,02,42,16.80
2015,06,30,02,43,16.80
2015,06,30,02,44,16.80
2015,06,30,02,45,16.80
2015,06,30,02,46,16.80
2015,06,30,02,47,16.80
2015,06,30,02,48,16.80
2015,06,30,02,49,16.80
2015,06,30,02,50,16.70
2015,06,30,02,51,16.70
2015,06,30,02,52,16.70
2015,06,30,02,53,16.70
2015,06,30,02,54,16.70
2015,06,30,02,55,16.70
2015,06,30,02,56,16.60
2015,06,30,02,57,16.60
2015,06,30,02,58,16.60
2015,06,30,02,59,16.60
2015,06,30,03,00,16.50
2015,06,30,03,01,16.50
2015,06,30,03,02,16.50
2015,06,30,03,03,16.50
2015,06,30,03,04,16.50
2015,06,30,03,05,16.40
2015,06,30,03,06,16.40
2015,06,30,03,07,16.40
2015,06,30,03,08,16.40
2015,06,30,03,09,16.40
2015,06,30,03,10,16.40
2015,06,30,03,11,16.40
2015,06,30,03,12,16.40
2015,06,30,03,13,16.30
2015,06,30,03,14,16.30
2015,06,30,03,15,16.30
2015,06,30,03,16,16.30
2015,06,30,03,17,16.30
2015,06,30,03,18,16.30
2015,06,30,03,19,16.20
2015,06,30,03,20,16.20
2015,06,30,03,21,16.20
2015,06,30,03,22,16.20
2015,06,30,03,23,16.20
2015,06,30,03,24,16.10
2015,06,30,03,25,16.10
2015,06,30,03,26,16.10
2015,06,30,03,27,16.10
2015,06,30,03,28,16.10
2015,06,30,03,29,16.00
2015,06,30,03,30,16.00
2015,06,30,03,31,16.00
2015,06,30,03,32,16.00
2015,06,30,03,33,15.90
2015,06,30,03,34,15.90
2015,06,30,03,35,15.90
2015,06,30,03,36,15.90
2015,06,30,03,37,15.90
2015,06,30,03,38,15.90
2015,06,30,03,39,15.90
2015,06,30,03,40,15.90
2015,06,30,03,41,15.80
2015,06,30,03,42,15.80
2015,06,30,03,43,15.80
2015,06,30,03,44,15.80
2015,06,30,03,45,15.80
2015,06,30,03,46,15.80
2015,06,30,03,47,15.80
2015,06,30,03,48,15.80
2015,06,30,03,49,15.80
2015,06,30,03,50,15.80
2015,06,30,03,51,15.80
2015,06,30,03,52,15.80
2015,06,30,03,53,15.80
2015,06,30,03,54,15.80
2015,06,30,03,55,15.80
2015,06,30,03,56,15.80
2015,06,30,03,57,15.80
2015,06,30,03,58,15.80
2015,06,30,03,59,15.80
2015,06,30,04,00,15.80
2015,06,30,04,01,15.80
2015,06,30,04,02,15.70
2015,06,30,04,03,15.70
2015,06,30,04,04,15.70
2015,06,30,04,05,15.70
2015,06,30,04,06,15.70
2015,06,30,04,07,15.70
2015,06,30,04,08,15.70
2015,06,30,04,09,15.70
2015,06,30,04,10,15.60
2015,06,30,04,11,15.60
2015,06,30,04,12,15.60
2015,06,30,04,13,15.60
2015,06,30,04,14,15.60
2015,06,30,04,15,15.60
2015,06,30,04,16,15.60
2015,06,30,04,17,15.60
2015,06,30,04,18,15.50
2015,06,30,04,19,15.50
2015,06,30,04,20,15.50
2015,06,30,04,21,15.40
2015,06,30,04,22,15.40
2015,06,30,04,23,15.40
2015,06,30,04,24,15.40
2015,06,30,04,25,15.40
2015,06,30,04,26,15.40
2015,06,30,04,27,15.40
2015,06,30,04,28,15.30
2015,06,30,04,29,15.30
2015,06,30,04,30,15.30
2015,06,30,04,31,15.30
2015,06,30,04,32,15.30
2015,06,30,04,33,15.30
2015,06,30,04,34,15.30
2015,06,30,04,35,15.20
2015,06,30,04,36,15.20
2015,06,30,04,37,15.20
2015,06,30,04,38,15.20
2015,06,30,04,39,15.20
2015,06,30,04,40,15.20
2015,06,30,04,41,15.20
2015,06,30,04,42,15.20
2015,06,30,04,43,15.20
2015,06,30,04,44,15.10
2015,06,30,04,45,15.10
2015,06,30,04,46,15.10
2015,06,30,04,47,15.10
2015,06,30,04,48,15.10
2015,06,30,04,49,15.10
2015,06,30,04,50,15.00
2015,06,30,04,51,15.00
2015,06,30,04,52,15.00
2015,06,30,04,53,14.90
2015,06,30,04,54,14.90
2015,06,30,04,55,14.90
2015,06,30,04,56,14.90
2015,06,30,04,57,14.90
2015,06,30,04,58,14.90
2015,06,30,04,59,14.90
2015,06,30,05,00,14.80
2015,06,30,05,01,14.80
2015,06,30,05,02,14.80
2015,06,30,05,03,14.80
2015,06,30,05,04,14.80
2015,06,30,05,05,14.80
2015,06,30,05,06,14.80
2015,06,30,05,07,14.80
2015,06,30,05,08,14.80
2015,06,30,05,09,14.80
2015,06,30,05,10,14.80
2015,06,30,05,11,14.80
2015,06,30,05,12,14.80
2015,06,30,05,13,14.80
2015,06,30,05,14,14.80
2015,06,30,05,15,14.80
2015,06,30,05,16,14.80
2015,06,30,05,17,14.80
2015,06,30,05,18,14.80
2015,06,30,05,19,14.80
2015,06,30,05,20,14.80
2015,06,30,05,21,14.70
2015,06,30,05,22,14.70
2015,06,30,05,23,14.70
2015,06,30,05,24,14.70
2015,06,30,05,25,14.70
2015,06,30,05,26,14.70
2015,06,30,05,27,14.70
2015,06,30,05,28,14.70
2015,06,30,05,29,14.70
2015,06,30,05,30,14.70
2015,06,30,05,31,14.70
2015,06,30,05,32,14.70
2015,06,30,05,33,14.70
2015,06,30,05,34,14.60
2015,06,30,05,35,14.60
2015,06,30,05,36,14.60
2015,06,30,05,37,14.60
2015,06,30,05,38,14.60
2015,06,30,05,39,14.60
2015,06,30,05,40,14.60
2015,06,30,05,41,14.60
2015,06,30,05,42,14.60
2015,06,30,05,43,14.60
2015,06,30,05,44,14.60
2015,06,30,05,45,14.60
2015,06,30,05,46,14.60
2015,06,30,05,47,14.60
2015,06,30,05,48,14.60
2015,06,30,05,49,14.60
2015,06,30,05,50,14.60
2015,06,30,05,51,14.60
2015,06,30,05,52,14.60
2015,06,30,05,53,14.60
2015,06,30,05,54,14.60
2015,06,30,05,55,14.60
2015,06,30,05,56,14.60
2015,06,30,05,57,14.60
2015,06,30,05,58,14.60
2015,06,30,05,59,14.60
2015,06,30,06,00,14.60
2015,06,30,06,01,14.60
2015,06,30,06,02,14.60
2015,06,30,06,03,14.60
2015,06,30,06,04,14.60
2015,06,30,06,05,14.60
2015,06,30,06,06,14.60
2015,06,30,06,07,14.60
2015,06,30,06,08,14.60
2015,06,30,06,09,14.60
2015,06,30,06,10,14.60
2015,06,30,06,11,14.60
2015,06,30,06,12,14.60
2015,06,30,06,13,14.70
2015,06,30,06,14,14.70
2015,06,30,06,15,14.70
2015,06,30,06,16,14.70
2015,06,30,06,17,14.70
2015,06,30,06,18,14.70
2015,06,30,06,19,14.70
2015,06,30,06,20,14.70
2015,06,30,06,21,14.70
2015,06,30,06,22,14.80
2015,06,30,06,23,14.80
2015,06,30,06,24,14.90
2015,06,30,06,25,14.90
2015,06,30,06,26,15.00
2015,06,30,06,27,15.00
2015,06,30,06,28,15.10
2015,06,30,06,29,15.10
2015,06,30,06,30,15.20
2015,06,30,06,31,15.30
2015,06,30,06,32,15.30
2015,06,30,06,33,15.40
2015,06,30,06,34,15.50
2015,06,30,06,35,15.60
2015,06,30,06,36,15.70
2015,06,30,06,37,15.80
2015,06,30,06,38,15.90
2015,06,30,06,39,16.00
2015,06,30,06,40,16.10
2015,06,30,06,41,16.20
2015,06,30,06,42,16.30
2015,06,30,06,43,16.30
2015,06,30,06,44,16.40
2015,06,30,06,45,16.50
2015,06,30,06,46,16.50
2015,06,30,06,47,16.60
2015,06,30,06,48,16.70
2015,06,30,06,49,16.70
2015,06,30,06,50,16.80
2015,06,30,06,51,16.90
2015,06,30,06,52,17.00
2015,06,30,06,53,17.00
2015,06,30,06,54,17.10
2015,06,30,06,55,17.20
2015,06,30,06,56,17.20
2015,06,30,06,57,17.30
2015,06,30,06,58,17.30
2015,06,30,06,59,17.40
2015,06,30,07,00,17.50
2015,06,30,07,01,17.50
2015,06,30,07,02,17.60
2015,06,30,07,03,17.70
2015,06,30,07,04,17.70
2015,06,30,07,05,17.80
2015,06,30,07,06,17.80
2015,06,30,07,07,17.90
2015,06,30,07,08,17.90
2015,06,30,07,09,18.00
2015,06,30,07,10,18.10
2015,06,30,07,11,18.20
2015,06,30,07,12,18.20
2015,06,30,07,13,18.30
2015,06,30,07,14,18.40
2015,06,30,07,15,18.40
2015,06,30,07,16,18.50
2015,06,30,07,17,18.50
2015,06,30,07,18,18.50
2015,06,30,07,19,18.60
2015,06,30,07,20,18.60
2015,06,30,07,21,18.70
2015,06,30,07,22,18.70
2015,06,30,07,23,18.80
2015,06,30,07,24,18.80
2015,06,30,07,25,18.80
2015,06,30,07,26,18.80
2015,06,30,07,27,18.80
2015,06,30,07,28,18.80
2015,06,30,07,29,18.90
2015,06,30,07,30,18.90
2015,06,30,07,31,18.90
2015,06,30,07,32,19.00
2015,06,30,07,33,19.00
2015,06,30,07,34,19.10
2015,06,30,07,35,19.10
2015,06,30,07,36,19.20
2015,06,30,07,37,19.20
2015,06,30,07,38,19.30
2015,06,30,07,39,19.30
2015,06,30,07,40,19.40
2015,06,30,07,41,19.50
2015,06,30,07,42,19.50
2015,06,30,07,43,19.60
2015,06,30,07,44,19.70
2015,06,30,07,45,19.70
2015,06,30,07,46,19.80
2015,06,30,07,47,19.90
2015,06,30,07,48,20.00
2015,06,30,07,49,20.10
2015,06,30,07,50,20.20
2015,06,30,07,51,20.20
2015,06,30,07,52,20.30
2015,06,30,07,53,20.40
2015,06,30,07,54,20.50
2015,06,30,07,55,20.60
2015,06,30,07,56,20.70
2015,06,30,07,57,20.80
2015,06,30,07,58,20.90
2015,06,30,07,59,21.10
2015,06,30,08,00,21.20
2015,06,30,08,01,21.30
2015,06,30,08,02,21.40
2015,06,30,08,03,21.50
2015,06,30,08,04,21.60
2015,06,30,08,05,21.70
2015,06,30,08,06,21.80
2015,06,30,08,07,21.80
2015,06,30,08,08,21.90
2015,06,30,08,09,22.10
2015,06,30,08,10,22.20
2015,06,30,08,11,22.20
2015,06,30,08,12,22.30
2015,06,30,08,13,22.40
2015,06,30,08,14,22.50
2015,06,30,08,15,22.50
2015,06,30,08,16,22.60
2015,06,30,08,17,22.70
2015,06,30,08,18,22.80
2015,06,30,08,19,22.80
2015,06,30,08,20,22.90
2015,06,30,08,21,23.00
2015,06,30,08,22,23.00
2015,06,30,08,23,23.10
2015,06,30,08,24,23.20
2015,06,30,08,25,23.20
2015,06,30,08,26,23.30
2015,06,30,08,27,23.40
2015,06,30,08,28,23.40
2015,06,30,08,29,23.50
2015,06,30,08,30,23.60
2015,06,30,08,31,23.60
2015,06,30,08,32,23.70
2015,06,30,08,33,23.80
2015,06,30,08,34,23.90
2015,06,30,08,35,24.00
2015,06,30,08,36,24.00
2015,06,30,08,37,24.10
2015,06,30,08,38,24.20
2015,06,30,08,39,24.30
2015,06,30,08,40,24.40
2015,06,30,08,41,24.40
2015,06,30,08,42,24.50
2015,06,30,08,43,24.60
2015,06,30,08,44,24.70
2015,06,30,08,45,24.70
2015,06,30,08,46,24.70
2015,06,30,08,47,24.50
2015,06,30,08,48,24.40
2015,06,30,08,49,24.20
2015,06,30,08,50,24.10
2015,06,30,08,51,24.00
2015,06,30,08,52,23.90
2015,06,30,08,53,24.00
2015,06,30,08,54,24.00
2015,06,30,08,55,24.00
2015,06,30,08,56,24.10
2015,06,30,08,57,24.10
2015,06,30,08,58,24.20
2015,06,30,08,59,24.30
2015,06,30,09,00,24.40
2015,06,30,09,01,24.60
2015,06,30,09,02,24.70
2015,06,30,09,03,24.80
2015,06,30,09,04,24.90
2015,06,30,09,05,25.00
2015,06,30,09,06,25.10
2015,06,30,09,07,25.20
2015,06,30,09,08,25.20
2015,06,30,09,09,25.30
2015,06,30,09,10,25.40
2015,06,30,09,11,25.40
2015,06,30,09,12,25.40
2015,06,30,09,13,25.50
2015,06,30,09,14,25.50
2015,06,30,09,15,25.50
2015,06,30,09,16,25.50
2015,06,30,09,17,25.50
2015,06,30,09,18,25.60
2015,06,30,09,19,25.70
2015,06,30,09,20,25.70
2015,06,30,09,21,25.70
2015,06,30,09,22,25.70
2015,06,30,09,23,25.70
2015,06,30,09,24,25.70
2015,06,30,09,25,25.70
2015,06,30,09,26,25.70
2015,06,30,09,27,25.70
2015,06,30,09,28,25.70
2015,06,30,09,29,25.70
2015,06,30,09,30,25.70
2015,06,30,09,31,25.70
2015,06,30,09,32,25.70
2015,06,30,09,33,25.70
2015,06,30,09,34,25.60
2015,06,30,09,35,25.60
2015,06,30,09,36,25.60
2015,06,30,09,37,25.50
2015,06,30,09,38,25.50
2015,06,30,09,39,25.40
2015,06,30,09,40,25.40
2015,06,30,09,41,25.30
2015,06,30,09,42,25.30
2015,06,30,09,43,25.20
2015,06,30,09,44,25.20
2015,06,30,09,45,25.20
2015,06,30,09,46,25.20
2015,06,30,09,47,25.20
2015,06,30,09,48,25.10
2015,06,30,09,49,25.20
2015,06,30,09,50,25.10
2015,06,30,09,51,25.20
2015,06,30,09,52,25.20
2015,06,30,09,53,25.10
2015,06,30,09,54,25.10
2015,06,30,09,55,25.10
2015,06,30,09,56,25.10
2015,06,30,09,57,25.10
2015,06,30,09,58,25.10
2015,06,30,09,59,25.10
2015,06,30,10,00,25.10
2015,06,30,10,01,25.20
2015,06,30,10,02,25.20
2015,06,30,10,03,25.20
2015,06,30,10,04,25.30
2015,06,30,10,05,25.30
2015,06,30,10,06,25.40
2015,06,30,10,07,25.40
2015,06,30,10,08,25.40
2015,06,30,10,09,25.40
2015,06,30,10,10,25.40
2015,06,30,10,11,25.40
2015,06,30,10,12,25.40
2015,06,30,10,13,25.40
2015,06,30,10,14,25.30
2015,06,30,10,15,25.30
2015,06,30,10,16,25.30
2015,06,30,10,17,25.30
2015,06,30,10,18,25.30
2015,06,30,10,19,25.30
2015,06,30,10,20,25.30
2015,06,30,10,21,25.40
2015,06,30,10,22,25.40
2015,06,30,10,23,25.50
2015,06,30,10,24,25.60
2015,06,30,10,25,25.60
2015,06,30,10,26,25.70
2015,06,30,10,27,25.70
2015,06,30,10,28,25.70
2015,06,30,10,29,25.80
2015,06,30,10,30,25.80
2015,06,30,10,31,25.80
2015,06,30,10,32,25.80
2015,06,30,10,33,25.80
2015,06,30,10,34,25.80
2015,06,30,10,35,25.80
2015,06,30,10,36,25.80
2015,06,30,10,37,25.80
2015,06,30,10,38,25.80
2015,06,30,10,39,25.80
2015,06,30,10,40,25.80
2015,06,30,10,41,25.80
2015,06,30,10,42,25.80
2015,06,30,10,43,25.80
2015,06,30,10,44,25.80
2015,06,30,10,45,25.80
2015,06,30,10,46,25.70
2015,06,30,10,47,25.70
2015,06,30,10,48,25.70
2015,06,30,10,49,25.70
2015,06,30,10,50,25.60
2015,06,30,10,51,25.60
2015,06,30,10,52,25.40
2015,06,30,10,53,25.30
2015,06,30,10,54,25.30
2015,06,30,10,55,25.20
2015,06,30,10,56,25.20
2015,06,30,10,57,25.20
2015,06,30,10,58,25.10
2015,06,30,10,59,25.10
2015,06,30,11,00,25.20
2015,06,30,11,01,25.20
2015,06,30,11,02,25.30
2015,06,30,11,03,25.30
2015,06,30,11,04,25.30
2015,06,30,11,05,25.30
2015,06,30,11,06,25.30
2015,06,30,11,07,25.30
2015,06,30,11,08,25.30
2015,06,30,11,09,25.30
2015,06,30,11,10,25.30
2015,06,30,11,11,25.30
2015,06,30,11,12,25.30
2015,06,30,11,13,25.30
2015,06,30,11,14,25.30
2015,06,30,11,15,25.20
2015,06,30,11,16,25.20
2015,06,30,11,17,25.20
2015,06,30,11,18,25.20
2015,06,30,11,19,25.20
2015,06,30,11,20,25.20
2015,06,30,11,21,25.30
2015,06,30,11,22,25.30
2015,06,30,11,23,25.40
2015,06,30,11,24,25.40
2015,06,30,11,25,25.50
2015,06,30,11,26,25.50
2015,06,30,11,27,25.50
2015,06,30,11,28,25.50
2015,06,30,11,29,25.50
2015,06,30,11,30,25.60
2015,06,30,11,31,25.60
2015,06,30,11,32,25.70
2015,06,30,11,33,25.70
2015,06,30,11,34,25.70
2015,06,30,11,35,25.70
2015,06,30,11,36,25.70
2015,06,30,11,37,25.70
2015,06,30,11,38,25.60
2015,06,30,11,39,25.60
2015,06,30,11,40,25.60
2015,06,30,11,41,25.60
2015,06,30,11,42,25.60
2015,06,30,11,43,25.60
2015,06,30,11,44,25.70
2015,06,30,11,45,25.70
2015,06,30,11,46,25.70
2015,06,30,11,47,25.70
2015,06,30,11,48,25.70
2015,06,30,11,49,25.60
2015,06,30,11,50,25.60
2015,06,30,11,51,25.50
2015,06,30,11,52,25.40
2015,06,30,11,53,25.40
2015,06,30,11,54,25.40
2015,06,30,11,55,25.40
2015,06,30,11,56,25.40
2015,06,30,11,57,25.50
2015,06,30,11,58,25.60
2015,06,30,11,59,25.70
2015,06,30,12,00,25.70
2015,06,30,12,01,25.80
2015,06,30,12,02,25.80
2015,06,30,12,03,25.90
2015,06,30,12,04,26.00
2015,06,30,12,05,26.00
2015,06,30,12,06,25.90
2015,06,30,12,07,25.90
2015,06,30,12,08,25.90
2015,06,30,12,09,25.90
2015,06,30,12,10,25.80
2015,06,30,12,11,25.80
2015,06,30,12,12,25.80
2015,06,30,12,13,25.80
2015,06,30,12,14,25.80
2015,06,30,12,15,25.80
2015,06,30,12,16,25.80
2015,06,30,12,17,25.80
2015,06,30,12,18,25.80
2015,06,30,12,19,25.80
2015,06,30,12,20,25.80
2015,06,30,12,21,25.80
2015,06,30,12,22,25.70
2015,06,30,12,23,25.70
2015,06,30,12,24,25.60
2015,06,30,12,25,25.60
2015,06,30,12,26,25.60
2015,06,30,12,27,25.60
2015,06,30,12,28,25.60
2015,06,30,12,29,25.60
2015,06,30,12,30,25.70
2015,06,30,12,31,25.70
2015,06,30,12,32,25.70
2015,06,30,12,33,25.70
2015,06,30,12,34,25.70
2015,06,30,12,35,25.70
2015,06,30,12,36,25.70
2015,06,30,12,37,25.80
2015,06,30,12,38,25.90
2015,06,30,12,39,26.00
2015,06,30,12,40,26.10
2015,06,30,12,41,26.20
2015,06,30,12,42,26.30
2015,06,30,12,43,26.40
2015,06,30,12,44,26.40
2015,06,30,12,45,26.40
2015,06,30,12,46,26.40
2015,06,30,12,47,26.50
2015,06,30,12,48,26.50
2015,06,30,12,49,26.50
2015,06,30,12,50,26.60
2015,06,30,12,51,26.70
2015,06,30,12,52,26.80
2015,06,30,12,53,26.80
2015,06,30,12,54,26.80
2015,06,30,12,55,26.80
2015,06,30,12,56,26.70
2015,06,30,12,57,26.70
2015,06,30,12,58,26.70
2015,06,30,12,59,26.70
2015,06,30,13,00,26.60
2015,06,30,13,01,26.60
2015,06,30,13,02,26.60
2015,06,30,13,03,26.60
2015,06,30,13,04,26.70
2015,06,30,13,05,26.70
2015,06,30,13,06,26.80
2015,06,30,13,07,26.80
2015,06,30,13,08,26.80
2015,06,30,13,09,26.80
2015,06,30,13,10,26.80
2015,06,30,13,11,26.70
2015,06,30,13,12,26.60
2015,06,30,13,13,26.60
2015,06,30,13,14,26.60
2015,06,30,13,15,26.60
2015,06,30,13,16,26.70
2015,06,30,13,17,26.70
2015,06,30,13,18,26.70
2015,06,30,13,19,26.70
2015,06,30,13,20,26.70
2015,06,30,13,21,26.70
2015,06,30,13,22,26.70
2015,06,30,13,23,26.70
2015,06,30,13,24,26.80
2015,06,30,13,25,26.80
2015,06,30,13,26,26.90
2015,06,30,13,27,26.90
2015,06,30,13,28,26.90
2015,06,30,13,29,26.80
2015,06,30,13,30,26.70
2015,06,30,13,31,26.70
2015,06,30,13,32,26.60
2015,06,30,13,33,26.60
2015,06,30,13,34,26.70
2015,06,30,13,35,26.70
2015,06,30,13,36,26.90
2015,06,30,13,37,26.90
2015,06,30,13,38,27.00
2015,06,30,13,39,27.10
2015,06,30,13,40,27.10
2015,06,30,13,41,27.10
2015,06,30,13,42,27.10
2015,06,30,13,43,27.10
2015,06,30,13,44,27.10
2015,06,30,13,45,27.10
2015,06,30,13,46,27.10
2015,06,30,13,47,27.10
2015,06,30,13,48,27.10
2015,06,30,13,49,27.20
2015,06,30,13,50,27.20
2015,06,30,13,51,27.30
2015,06,30,13,52,27.30
2015,06,30,13,53,27.20
2015,06,30,13,54,27.10
2015,06,30,13,55,27.00
2015,06,30,13,56,26.90
2015,06,30,13,57,26.80
2015,06,30,13,58,26.60
2015,06,30,13,59,26.50
2015,06,30,14,00,26.40
2015,06,30,14,01,26.40
2015,06,30,14,02,26.30
2015,06,30,14,03,26.30
2015,06,30,14,04,26.40
2015,06,30,14,05,26.40
2015,06,30,14,06,26.30
2015,06,30,14,07,26.30
2015,06,30,14,08,26.30
2015,06,30,14,09,26.20
2015,06,30,14,10,26.20
2015,06,30,14,11,26.30
2015,06,30,14,12,26.30
2015,06,30,14,13,26.40
2015,06,30,14,14,26.40
2015,06,30,14,15,26.30
2015,06,30,14,16,26.20
2015,06,30,14,17,26.10
2015,06,30,14,18,26.10
2015,06,30,14,19,26.00
2015,06,30,14,20,25.90
2015,06,30,14,21,25.90
2015,06,30,14,22,25.80
2015,06,30,14,23,25.80
2015,06,30,14,24,25.60
2015,06,30,14,25,25.50
2015,06,30,14,26,25.40
2015,06,30,14,27,25.40
2015,06,30,14,28,25.30
2015,06,30,14,29,25.20
2015,06,30,14,30,25.20
2015,06,30,14,31,25.10
2015,06,30,14,32,25.10
2015,06,30,14,33,25.20
2015,06,30,14,34,25.20
2015,06,30,14,35,25.20
2015,06,30,14,36,25.30
2015,06,30,14,37,25.30
2015,06,30,14,38,25.30
2015,06,30,14,39,25.20
2015,06,30,14,40,25.20
2015,06,30,14,41,25.20
2015,06,30,14,42,25.20
2015,06,30,14,43,25.30
2015,06,30,14,44,25.40
2015,06,30,14,45,25.50
2015,06,30,14,46,25.50
2015,06,30,14,47,25.50
2015,06,30,14,48,25.40
2015,06,30,14,49,25.40
2015,06,30,14,50,25.40
2015,06,30,14,51,25.40
2015,06,30,14,52,25.40
2015,06,30,14,53,25.50
2015,06,30,14,54,25.60
2015,06,30,14,55,25.60
2015,06,30,14,56,25.50
2015,06,30,14,57,25.50
2015,06,30,14,58,25.40
2015,06,30,14,59,25.40
2015,06,30,15,00,25.30
2015,06,30,15,01,25.30
2015,06,30,15,02,25.20
2015,06,30,15,03,25.20
2015,06,30,15,04,25.30
2015,06,30,15,05,25.30
2015,06,30,15,06,25.20
2015,06,30,15,07,25.10
2015,06,30,15,08,25.00
2015,06,30,15,09,24.90
2015,06,30,15,10,24.90
2015,06,30,15,11,24.80
2015,06,30,15,12,24.80
2015,06,30,15,13,24.80
2015,06,30,15,14,24.90
2015,06,30,15,15,24.90
2015,06,30,15,16,24.90
2015,06,30,15,17,24.90
2015,06,30,15,18,24.80
2015,06,30,15,19,24.80
2015,06,30,15,20,24.80
2015,06,30,15,21,24.80
2015,06,30,15,22,24.90
2015,06,30,15,23,24.90
2015,06,30,15,24,25.00
2015,06,30,15,25,25.10
2015,06,30,15,26,25.20
2015,06,30,15,27,25.20
2015,06,30,15,28,25.20
2015,06,30,15,29,25.10
2015,06,30,15,30,25.00
2015,06,30,15,31,25.00
2015,06,30,15,32,25.00
2015,06,30,15,33,25.00
2015,06,30,15,34,24.90
2015,06,30,15,35,24.90
2015,06,30,15,36,25.00
2015,06,30,15,37,25.00
2015,06,30,15,38,24.90
2015,06,30,15,39,24.90
2015,06,30,15,40,24.90
2015,06,30,15,41,24.90
2015,06,30,15,42,25.00
2015,06,30,15,43,25.10
2015,06,30,15,44,25.20
2015,06,30,15,45,25.30
2015,06,30,15,46,25.30
2015,06,30,15,47,25.40
2015,06,30,15,48,25.40
2015,06,30,15,49,25.40
2015,06,30,15,50,25.40
2015,06,30,15,51,25.40
2015,06,30,15,52,25.40
2015,06,30,15,53,25.50
2015,06,30,15,54,25.50
2015,06,30,15,55,25.50
2015,06,30,15,56,25.50
2015,06,30,15,57,25.50
2015,06,30,15,58,25.50
2015,06,30,15,59,25.60
2015,06,30,16,00,25.60
2015,06,30,16,01,25.60
2015,06,30,16,02,25.60
2015,06,30,16,03,25.60
2015,06,30,16,04,25.70
2015,06,30,16,05,25.80
2015,06,30,16,06,25.80
2015,06,30,16,07,25.90
2015,06,30,16,08,26.00
2015,06,30,16,09,26.10
2015,06,30,16,10,26.20
2015,06,30,16,11,26.30
2015,06,30,16,12,26.30
2015,06,30,16,13,26.30
2015,06,30,16,14,26.40
2015,06,30,16,15,26.40
2015,06,30,16,16,26.40
2015,06,30,16,17,26.40
2015,06,30,16,18,26.40
2015,06,30,16,19,26.40
2015,06,30,16,20,26.50
2015,06,30,16,21,26.50
2015,06,30,16,22,26.50
2015,06,30,16,23,26.60
2015,06,30,16,24,26.70
2015,06,30,16,25,26.80
2015,06,30,16,26,26.80
2015,06,30,16,27,26.90
2015,06,30,16,28,27.00
2015,06,30,16,29,27.10
2015,06,30,16,30,27.20
2015,06,30,16,31,27.20
2015,06,30,16,32,27.30
2015,06,30,16,33,27.30
2015,06,30,16,34,27.40
2015,06,30,16,35,27.40
2015,06,30,16,36,27.40
2015,06,30,16,37,27.40
2015,06,30,16,38,27.40
2015,06,30,16,39,27.40
2015,06,30,16,40,27.30
2015,06,30,16,41,27.30
2015,06,30,16,42,27.30
2015,06,30,16,43,27.30
2015,06,30,16,44,27.20
2015,06,30,16,45,27.20
2015,06,30,16,46,27.20
2015,06,30,16,47,27.20
2015,06,30,16,48,27.30
2015,06,30,16,49,27.30
2015,06,30,16,50,27.30
2015,06,30,16,51,27.30
2015,06,30,16,52,27.30
2015,06,30,16,53,27.30
2015,06,30,16,54,27.30
2015,06,30,16,55,27.30
2015,06,30,16,56,27.40
2015,06,30,16,57,27.40
2015,06,30,16,58,27.50
2015,06,30,16,59,27.60
2015,06,30,17,00,27.60
2015,06,30,17,01,27.60
2015,06,30,17,02,27.60
2015,06,30,17,03,27.60
2015,06,30,17,04,27.60
2015,06,30,17,05,27.60
2015,06,30,17,06,27.60
2015,06,30,17,07,27.60
2015,06,30,17,08,27.70
2015,06,30,17,09,27.70
2015,06,30,17,10,27.80
2015,06,30,17,11,27.80
2015,06,30,17,12,27.90
2015,06,30,17,13,28.00
2015,06,30,17,14,28.00
2015,06,30,17,15,28.10
2015,06,30,17,16,28.10
2015,06,30,17,17,28.10
2015,06,30,17,18,28.10
2015,06,30,17,19,28.00